Location: Lake Almanor
(40.2485°N, 121.1442°W)
Time: 10:48:42
(UTC-08:00)

STARLINK-1116 - Pass Details

Date: 01 February 2020
Orbit: 348 x 351 km, 53.0° (Epoch: 18 February)

Event Time Altitude Azimuth Distance (km) Brightness Sun altitude
Rises 18:43:21 0° 305° (NW) 2,156 7.4 -15.6°
Reaches altitude 10° 18:45:23 10° 301° (WNW) 1,310 6.3 -16.0°
Maximum altitude 18:48:14 53° 223° (SW) 437 3.4 -16.5°
Enters shadow 18:49:43 24° 155° (SSE) 778 4.2 -16.8°
